Weather in Dubyany

Russia / Kostroma Oblast     58°04′33″N   42°20′26″E
temp.,
°C
wind,
m/s
gust,
m/s
humid.,
%
clouds,
%
prec.,
mm/h
press.,
hPa
HPBL,
m
6 march, sat
sat600:00−16wnw239713 0.0 101124
03:00−15w239752 0.1 101365
06:00−16wnw239895 0.1 101347
09:00−14wnw249576 0.1 1014188
12:00−10wnw358882 0.0 1014595
15:00−9wnw358591 0.1 1013819
18:00−13w129293 0.1 101220
21:00−15wsw229765 0.1 101220
7 march, sun
sun700:00−15ssw239833 0.0 101051
03:00−17s379850 0.0 1007136
06:00−14s4119490 0.0 1003303
09:00−10s6129395 0.1 999583
12:00−7s61092100 1.0 995835
15:00−6sse51093100 2.0 991805
18:00−7se51095100 0.9 988634
21:00−6se4895100 2.3 987478
8 march, mon
mon800:00−8sw2696100 0.8 987362
03:00−9sw2496100 1.4 988209
06:00−9nne41093100 0.3 990460
09:00−10n5992100 0.6 993606
12:00−10n4889100 0.2 996694
15:00−9n5888100 0.3 1000796
18:00−12nnw4992100 0.1 1003629
21:00−15nnw4109399 0.2 1007485
9 march, tue
tue900:00−19nnw379795 0.0 1009168
03:00−23nnw369859 0.0 1012119
06:00−25nnw36980 0.0 1014113
09:00−23nnw35958 0.0 1015243
12:00−18nw349160 0.0 1016404
15:00−16nw358880 0.0 1017607
18:00−20nnw2596100 0.0 1018104
21:00−24nnw239875 0.0 102135
10 march, wed
wed1000:00−26nnw23980 0.0 102222
03:00−28nnw22970 0.0 102319
06:00−28nnw239719 0.0 102429
09:00−23n249526 0.0 1025196
12:00−17nnw238484 0.0 1025479
15:00−14nw237991 0.0 1024673
18:00−19wnw229241 0.0 102320
21:00−20w239556 0.0 102527